This is the latest recevied weather packets stored in our database for station/object YN9ZMM-13. If no packets are shown the sender has not sent any weather packets the latest 10 day(s).
| Time | Temp. | Humidity | Pressure | Rain* | Wind** | Luminosity | Snow |
|---|---|---|---|---|---|---|---|
| 1777634968 | 19.44° C | 84% | 1012 hPa | 0 mm | - | - | - |
| 1777634367 | 18.89° C | 84% | 1012 hPa | 0 mm | - | - | - |
| 1777633767 | 18.33° C | 84% | 1012 hPa | 0 mm | - | - | - |
| 1777633167 | 17.78° C | 84% | 1012 hPa | 0 mm | - | - | - |
| 1777632566 | 19.44° C | 76% | 1012 hPa | 0 mm | - | - | - |
| 1777631966 | 18.89° C | 76% | 1012 hPa | 0 mm | - | - | - |
| 1777631366 | 18.33° C | 76% | 1011 hPa | 0 mm | - | - | - |
| 1777630766 | 20° C | 76% | 1011 hPa | 0 mm | - | - | - |
| 1777630165 | 19.44° C | 76% | 1011 hPa | 0 mm | - | - | - |
| 1777629565 | 18.89° C | 76% | 1011 hPa | 0 mm | - | - | - |
| 1777628965 | 18.33° C | 76% | 1011 hPa | 0 mm | - | - | - |
| 1777628365 | 17.78° C | 76% | 1011 hPa | 0 mm | - | - | - |
| 1777627765 | 17.22° C | 76% | 1011 hPa | 0 mm | - | - | - |
| 1777627164 | 16.67° C | 76% | 1011 hPa | 0 mm | - | - | - |
| 1777626564 | 16.11° C | 76% | 1011 hPa | 0 mm | - | - | - |
| 1777625963 | 20° C | 77% | 1011 hPa | 0 mm | - | - | - |
| 1777625363 | 19.44° C | 77% | 1011 hPa | 0 mm | - | - | - |
| 1777624763 | 18.89° C | 77% | 1011 hPa | 0 mm | - | - | - |
| 1777624162 | 18.33° C | 77% | 1012 hPa | 0 mm | - | - | - |
| 1777623562 | 20.56° C | 80% | 1012 hPa | 0 mm | - | - | - |
| 1777622962 | 20° C | 80% | 1012 hPa | 0 mm | - | - | - |
| 1777622362 | 19.44° C | 80% | 1012 hPa | 0 mm | - | - | - |
| 1777621762 | 20.56° C | 78% | 1012 hPa | 0 mm | - | - | - |
| 1777621161 | 20° C | 78% | 1012 hPa | 0 mm | - | - | - |
| 1777620561 | 21.67° C | 72% | 1012 hPa | 0 mm | - | - | - |
* Rain latest hour (hover to see other rain measurements)
** Current wind speed in m/s (hover to see current wind gust speed)